User: anonymous   Login
Location: Unspecified
(0.0000°N, 0.0000°E)
Time: 07:16:14
(UTC+00:00)
Language:

Injun 5 (Explorer 40) - Orbit

View from above orbital plane
View from above orbital plane
View from above satellite
View from above satellite

Ground track
Ground track

The orbit data is extracted from the following two-line orbital elements,

1  3338U 68066B   17178.81727173 +.00000077 +00000-0 +69916-4 0  9992
2  3338 080.6632 070.2660 1132230 165.1695 198.5723 12.22820709177812
Epoch (UTC): 27 June 2017 19:36:52
Eccentricity: 0.1132230
inclination: 80.6632°
perigee height: 679 km
apogee height: 2481 km
right ascension of ascending node: 70.2660°
argument of perigee: 165.1695°
revolutions per day: 12.22820709
mean anomaly at epoch: 198.5723°
orbit number at epoch: 17781

The dashed part of the orbit path shows where the satellite is in the earth's shadow,  

DLR